Regional Weather Roundup
Issued by NWS

Home | Current Version | Previous Version | Graphics & Text | Print | Product List | Glossary On
Versions: 1 2 3 4 5 6 7 8 9 10 11 12 13 14 15 16 17 18 19 20 21 22 23 24 25 26 27 28 29 30 31 32 33 34 35 36 37 38 39 40 41 42 43 44 45 46 47 48 49 50
662
ASUS43 KLOT 050108
RWRIL

ILLINOIS REGIONAL WEATHER ROUNDUP
NATIONAL WEATHER SERVICE CHICAGO/ROMEOVILLE IL
700 PM CST SUN DEC 04 2016

NOTE: "FAIR" INDICATES FEW OR NO CLOUDS BELOW 12,000 FEET WITH NO
SIGNIFICANT WEATHER AND/OR OBSTRUCTIONS TO VISIBILITY.

* THESE STATIONS ARE NOT UNDER NWS QUALITY CONTROL. THEY ALSO MAY NOT
  REPORT WEATHER SUCH AS PRECIPITATION OR FOG.

ILZ001-002-007-009-015-016-024-050200-
NORTHWEST ILLINOIS

CITY           SKY/WX    TMP DP  RH WIND       PRES   REMARKS
MOLINE         CLOUDY    34  31  88 SW7       29.92R FOG     WCI  28
STERLING*      CLOUDY    31  29  92 CALM      29.92S FOG
SAVANNA*       CLOUDY    32  32 100 SW3       29.91R FOG
$$

ILZ003-004-008-010-011-017-018-050200-
NORTH CENTRAL ILLINOIS

CITY           SKY/WX    TMP DP  RH WIND       PRES   REMARKS
ROCKFORD       CLOUDY    30  29  96 S5        29.91F FOG     WCI  25
FREEPORT*      CLOUDY    31  30  96 SW8       29.90S FOG     WCI  23
ROCHELLE*      CLOUDY    29  29  99 CALM      29.90S FOG
DE KALB*       CLOUDY    30  30  98 CALM      29.89S FOG
$$

ILZ005-006-012>014-019>023-050200-
NORTHEAST ILLINOIS

CITY           SKY/WX    TMP DP  RH WIND       PRES   REMARKS
CHICAGO-OHARE  LGT SNOW  31  30  96 W3        29.88F FOG
CHICAGO-MIDWAY LGT SNOW  33  31  92 NW6       29.89F FOG     WCI  28
AURORA         CLOUDY    31  29  92 CALM      29.90S FOG
LANSING*       CLOUDY    32  32 100 CALM      29.88S FOG
JOLIET*        CLOUDY    33  33 100 CALM      29.90S FOG
WAUKEGAN       LGT SNOW  32  32 100 VRB3      29.87F FOG
DUPAGE AIRPORT LGT SNOW  31  29  92 CALM      29.88F FOG
KANKAKEE*      CLOUDY    32  32  99 NW3       29.90R FOG
WHEELING       LGT SNOW  32  31  96 CALM      29.90F FOG
MORRIS*        MIX PCPN  30  30  98 CALM      29.90S
ROMEOVILLE*    LGT RAIN  31  31 100 CALM      29.89S
NORTHERLY ISL    N/A     34  33  96 W1          N/A
$$

LMZ740>746-050200-
SOUTHERN LAKE MICHIGAN

STATION/POSITION SKY/WX   TEMP    WIND        PRES    VSBY  WAVE
                          AIR SEA DIR/SP/G                  HT/PER
                          (F)     (DEG/KT/KT) (MB)    (MI)  (FT/S)
SOUTHERN BUOY              36 48  180/ 12/ 14 1012.7          3/ 5
HARRISON CRIB              35     310/  7/  8   N/A
BURNHAM HARBOR             34     280/  3/  4   N/A
CALUMET HARBOR             32     290/  3/  4 1011.3F
BURNS HARBOR               35     290/  4/  5 1011.9F
$$

ILZ025>027-034>036-040-047-049-050-058-095>099-050200-
WEST-CENTRAL ILLINOIS

CITY           SKY/WX    TMP DP  RH WIND       PRES   REMARKS
QUINCY         CLOUDY    35  33  92 W12       29.98R WCI  27
GALESBURG*     CLOUDY    33  33 100 SW5       29.93S FOG     WCI  28
MACOMB*        CLOUDY    34  34 100 W8        29.98R FOG     WCI  27
JACKSONVILLE*  CLOUDY    34  32  93 SW8       29.98R WCI  27
PITTSFIELD*    CLOUDY    35  33  93 W7        30.00R WCI  29
$$

ILZ028>032-037-038-041>044-048-051>054-059>061-050200-
CENTRAL ILLINOIS

CITY           SKY/WX    TMP DP  RH WIND       PRES   REMARKS
PONTIAC        CLOUDY    32  32 100 W5        29.93R FOG     WCI  27
BLOOMINGTON    LGT SNOW  32  31  96 W7        29.93R FOG     WCI  26
DECATUR        CLOUDY    33  33 100 W9        29.96R FOG     WCI  25
PEORIA         CLOUDY    33  33 100 SW3       29.95R FOG
LACON*         CLOUDY    32  32 100 CALM      29.93R FOG
LINCOLN*       CLOUDY    33  33 100 W3        29.95R FOG
SPRINGFIELD    CLOUDY    34  33  96 W10       29.97R WCI  26
TAYLORVILLE    CLOUDY    33  32  98 W10G16    29.97R WCI  25
$$

ILZ033-039-045-046-055>057-062-063-050200-
EAST-CENTRAL ILLINOIS

CITY           SKY/WX    TMP DP  RH WIND       PRES   REMARKS
CHAMPAIGN      CLOUDY    33  31  92 W12       29.93R FOG     WCI  24
RANTOUL*       CLOUDY    34  34  99 W7        29.92R FOG     WCI  28
MATTOON        CLOUDY    36  33  89 W13       29.94R WCI  27
PARIS*         CLOUDY    35  34  95 W13       29.92R WCI  27
$$

ILZ079-100>102-050200-
SOUTHWEST ILLINOIS

CITY           SKY/WX    TMP DP  RH WIND       PRES   REMARKS
ALTON          CLOUDY    37  34  87 NW12      30.00R WCI  30
BELLEVILLE     CLOUDY    40  39  95 NW12      29.99R
CAHOKIA*       CLOUDY    41  34  76 NW17      30.01R
SPARTA*        CLOUDY    40  35  84 NW7       30.01R
$$

ILZ064>066-069>071-074>076-080>082-084>086-088>090-092>094-050200-
SOUTH-CENTRAL ILLINOIS

CITY           SKY/WX    TMP DP  RH WIND       PRES   REMARKS
CARBONDALE     CLOUDY    41  37  86 NW6       30.01R
CAIRO*         CLOUDY    42  39  89 NW5       30.02S
EFFINGHAM*     CLOUDY    38  37  98 SW9       29.98R WCI  31
MARION         CLOUDY    41  39  93 CALM      30.01R
CENTRALIA*     CLOUDY    40  37  89 NW8       29.99R
SALEM*         CLOUDY    40  34  80 W9G18     29.99R
METROPOLIS*    CLOUDY    42  39  87 W3        30.02R
$$

ILZ067-068-072-073-078-083-087-091-050200-
SOUTHEAST ILLINOIS

CITY           SKY/WX    TMP DP  RH WIND       PRES   REMARKS
LAWRENCEVILLE  CLOUDY    40  38  93 W14       29.97R
FLORA*         CLOUDY    40  35  83 W10G18    29.99R
FAIRFIELD*     CLOUDY    38  35  88 W5        29.98R WCI  35
HARRISBURG*    CLOUDY    41  37  86 NW12G18   30.01R
ROBINSON*      CLOUDY    38  35  87 W13G22    29.96R WCI  31
CARMI*         CLOUDY    40  37  87 W15       29.98R
$$

ABBREVIATIONS USED IN REMARKS
   TC - TEMPERATURE IN CELSIUS
  WCI - WIND CHILL INDEX
   HX - HEAT INDEX
  VSB - VISIBILITY
$$





USA.gov is the U.S. government's official web portal to all federal, state and local government web resources and services.